Flag for Lebanon Weather past 2 weeks in Sidon, Lebanon

Now
61 °F

Passing clouds.


Feels Like: 61 °F
Forecast: 49 / 59 °F
Wind: 3 mph from Southeast

Location: Beirut Airport

Current Time: Dec 20, 2014 at 7:21:07 AM

Latest Report: Dec 20, 2014 at 6:00 AM


Visibility: 5 mi

Pressure: 30.12 "Hg

Humidity: 68%

Dew point: 50 °F

Location of SidonLocation

Historic Weather in Sidon — Graph

°F

Sidon temperature yesterday

Maximum temperature yesterday: 66 °F (at 9:00 AM)
Minimum temperature yesterday: 61 °F (at 6:00 AM)
Average temperature yesterday: 64 °F

Past Weeks' High & Low Weather Summary

 TemperatureHumidityPressure
High81 °F (Dec 8, 10:00 PM)88% (Dec 12, 8:00 PM)30.30 "Hg (Dec 12, 8:00 PM)
Low57 °F (Dec 14, 5:00 AM)24% (Dec 8, 11:00 PM)29.80 "Hg (Dec 9, 1:00 AM)
Average65 °F61%30.10 "Hg
* Reported Dec 5 6:00 AM — Dec 20 6:00 AM, Sidon, Weather by CustomWeather, © 2014

Note: Actual official high and low records may vary slightly from our data, if they occured in-between our weather recording intervals... More about our weather records

Advertising

Sidon weather history for previous 24 hours

 ConditionsComfort  
Time TempWeatherWind HumidityBarometerVisibility
6:00 AM
Dec 20
61 °FPassing clouds.3 mph68%30.12 "Hg5 mi
5:00 AM61 °FPassing clouds.6 mph68%30.12 "Hg5 mi
4:00 AM61 °FPassing clouds.3 mph72%30.12 "Hg5 mi
3:00 AM61 °FPassing clouds.5 mph72%30.12 "Hg5 mi
2:00 AM61 °FPassing clouds.3 mph77%30.12 "Hg5 mi
1:00 AM61 °FPassing clouds.3 mph72%30.12 "Hg5 mi
12:00 AM63 °FPassing clouds.6 mph68%30.12 "Hg5 mi
11:00 PM
Dec 19
63 °FPassing clouds.6 mph68%30.12 "Hg5 mi
10:00 PM63 °FPassing clouds.6 mph73%30.12 "Hg5 mi
9:00 PM63 °FPassing clouds.6 mph73%30.12 "Hg5 mi
8:00 PM63 °FPassing clouds.5 mph73%30.12 "Hg5 mi
7:00 PM63 °FPassing clouds.5 mph77%30.12 "Hg5 mi
6:00 PM64 °FPassing clouds.5 mph73%30.12 "Hg5 mi
5:00 PM64 °FPassing clouds.2 mph73%30.09 "Hg5 mi
4:00 PM66 °FPartly sunny.6 mph68%30.09 "Hg5 mi
3:00 PM66 °FPartly sunny.6 mph68%30.09 "Hg5 mi
2:00 PM66 °FPartly sunny.8 mph68%30.09 "Hg6 mi
1:00 PM66 °FPartly sunny.8 mph73%30.07 "Hg5 mi
12:00 PM66 °FLight rain. Partly sunny.5 mph68%30.09 "Hg5 mi
11:00 AM64 °FLight rain. Scattered clouds.5 mph68%30.09 "Hg5 mi
10:00 AM66 °FScattered clouds.6 mph64%30.09 "Hg5 mi
9:00 AM66 °FScattered clouds.7 mph64%30.09 "Hg5 mi
8:00 AM64 °FScattered clouds.7 mph60%30.09 "Hg5 mi
7:00 AM63 °FScattered clouds.3 mph59%30.09 "Hg5 mi
Weather by CustomWeather, © 2014

See weather overviewHow to use our weather pages